Location: *
(45.5667°S, 177.5167°W)
Time: 16:46:55
(UTC+00:00)

Cosmos 2322 Rocket - Pass Details

Date: 29 May 2022
Orbit: 833 x 850 km, 71.0° (Epoch: 28 June)

Event Time Altitude Azimuth Distance (km) Brightness Sun altitude
Rises 07:26:40 0° 209° (SSW) 3,448 5.8 -32.4°
Reaches altitude 10° 07:29:10 10° 212° (SSW) 2,503 5.0 -32.9°
Enters shadow 07:33:22 46° 238° (WSW) 1,139 3.1 -33.6°
